This demonstration page uses our WeatherBlox Daily Observations layout. Learn more.

Left ArrowRight Arrow

Hourly Observations for October 23, 2019

Temp ( °F °C ) Dew Point ( °F °C ) Humidity (%) Winds ( mph kmh ) Pressure ( in mb ) Visibility ( mi km ) Precip ( " mm )
12:53 am 00:53 Clear 58 14.4 27 -2.8 31 31 SE 10 17 29.93 1014 10 16 0.00 0.00
1:53 am 01:53 Clear 57 13.9 31 -0.6 37 37 SE 10 17 29.90 1013 10 16 0.00 0.00
2:53 am 02:53 Clear 50 10 29 -1.7 44 44 S 3 6 29.91 1013 10 16 0.00 0.00
3:53 am 03:53 Clear 49 9.4 29 -1.7 46 46 SSE 5 7 29.91 1013 10 16 0.00 0.00
4:53 am 04:53 Clear 42 5.6 25 -3.9 51 51 Calm 29.91 1013 10 16 0.00 0.00
5:53 am 05:53 Clear 43 6.1 26 -3.3 51 51 SE 5 7 29.90 1012 10 16 0.00 0.00
6:53 am 06:53 Clear 45 7.2 29 -1.7 54 54 SE 7 11 29.90 1013 10 16 0.00 0.00
7:53 am 07:53 Clear 39 3.9 25 -3.9 57 57 NE 5 7 29.93 1013 10 16 0.00 0.00
8:53 am 08:53 Sunny 44 6.7 27 -2.8 51 51 Calm 29.94 1014 10 16 0.00 0.00
9:53 am 09:53 Sunny 57 13.9 32 0 39 39 SSE 8 13 29.93 1014 10 16 0.00 0.00
10:53 am 10:53 Sunny 64 17.8 31 -0.6 29 29 SSE 7 11 29.93 1014 10 16 0.00 0.00
11:53 am 11:53 Sunny 71 21.7 26 -3.3 19 19 SSE 5 7 29.91 1013 10 16 0.00 0.00
12:53 pm 12:53 Sunny 77 25 20 -6.7 12 12 VRB 6 9 29.88 1012 10 16 0.00 0.00
1:53 pm 13:53 Sunny 78 25.6 19 -7.2 11 11 W 6 9 29.84 1010 10 16 0.00 0.00
2:53 pm 14:53 Sunny 82 27.8 18 -7.8 9 9 WNW 8 13 29.80 1009 10 16 0.00 0.00
3:53 pm 15:53 Sunny 83 28.3 17 -8.3 8 8 VRB 6 9 29.78 1008 10 16 0.00 0.00
4:53 pm 16:53 Sunny 85 29.4 18 -7.8 8 8 SW 7 11 29.77 1008 10 16 0.00 0.00
5:53 pm 17:53 Sunny 84 28.9 19 -7.2 9 9 NW 6 9 29.76 1008 10 16 0.00 0.00
6:53 pm 18:53 Sunny 83 28.3 19 -7.2 9 9 Calm 29.76 1008 10 16 0.00 0.00
7:53 pm 19:53 Clear 74 23.3 22 -5.6 14 14 E 3 6 29.80 1009 10 16 0.00 0.00
8:53 pm 20:53 Clear 68 20 21 -6.1 17 17 E 6 9 29.82 1010 10 16 0.00 0.00
9:53 pm 21:53 Clear 65 18.3 28 -2.2 25 25 E 8 13 29.81 1010 10 16 0.00 0.00
10:53 pm 22:53 Clear 62 16.7 35 1.7 37 37 ESE 6 9 29.82 1010 10 16 0.00 0.00
11:53 pm 23:53 Clear 62 16.7 46 7.8 56 56 E 7 11 29.80 1009 10 16 0.00 0.00

Powered by AerisWeather